Flag for Botswana Weather past 2 weeks in Molepolole, Botswana

Now
57 °F

Sunny.


Feels Like: 57 °F
Forecast: 59 / 80 °F
Wind: 3 mph from Southwest

Location: Seretse Khama International Airport

Current Time: Apr 21, 2015 at 7:50:05 AM

Latest Report: Apr 21, 2015 at 7:00 AM


Visibility: 10 mi

Pressure: 30.21 "Hg

Humidity: 100%

Dew point: 57 °F

Location of MolepololeLocation

Historic Weather in Molepolole — Graph

°F

Molepolole temperature yesterday

Maximum temperature yesterday: 81 °F (at 4:00 PM)
Minimum temperature yesterday: 59 °F (at 4:00 AM)
Average temperature yesterday: 68 °F

Past Weeks' High & Low Weather Summary

 TemperatureHumidityPressure
High88 °F (Apr 6, 2:00 PM)100% (Apr 12, 6:00 AM)30.30 "Hg (Apr 12, 6:00 AM)
Low54 °F (Apr 16, 6:00 AM)16% (Apr 15, 3:00 PM)29.92 "Hg (Apr 15, 3:00 PM)
Average70 °F60%30.14 "Hg
* Reported Apr 6 7:00 AM — Apr 21 7:00 AM, Molepolole, Weather by CustomWeather, © 2015

Note: Actual official high and low records may vary slightly from our data, if they occured in-between our weather recording intervals... More about our weather records

Advertising

Molepolole weather history for previous 24 hours

 ConditionsComfort  
Time TempWeatherWind HumidityBarometerVisibility
7:00 AM
Tue, Apr 21
57 °FSunny.3 mph100%30.21 "Hg10 mi
6:00 AM57 °FPassing clouds.5 mph94%30.18 "HgN/A
5:00 AM57 °FClear.1 mph100%30.15 "Hg10 mi
4:00 AM57 °FPassing clouds.5 mph100%30.15 "HgN/A
3:00 AM61 °FClear.2 mph83%30.15 "Hg10 mi
2:00 AM59 °FClear.6 mph94%30.15 "Hg10 mi
1:00 AM61 °FPassing clouds.5 mph94%30.15 "HgN/A
10:00 PM
Mon, Apr 20
66 °FClear.1 mph78%30.15 "Hg10 mi
9:00 PM64 °FClear.2 mph83%30.15 "Hg10 mi
8:00 PM68 °FPassing clouds.3 mph64%30.12 "HgN/A
7:00 PM70 °FClear.6 mph60%30.09 "Hg10 mi
6:00 PM75 °FPassing clouds.5 mph50%30.09 "HgN/A
5:00 PM79 °FPassing clouds.3 mph39%30.09 "HgN/A
4:00 PM81 °FScattered clouds.6 mph39%30.09 "HgN/A
3:00 PM79 °FScattered clouds.6 mph37%30.09 "HgN/A
2:00 PM79 °FScattered clouds.5 mph39%30.12 "HgN/A
1:00 PM77 °FScattered clouds.5 mph51%30.15 "HgN/A
12:00 PM73 °FPassing clouds.3 mph61%30.18 "HgN/A
11:00 AM66 °FPassing clouds.3 mph94%30.21 "HgN/A
10:00 AM64 °FScattered clouds.1 mph100%30.21 "HgN/A
9:00 AM61 °FFog.3 mph100%30.21 "Hg2 mi
8:00 AM59 °FFog.2 mph100%30.18 "Hg0 mi
7:00 AM59 °FFog.5 mph100%30.15 "Hg0 mi
Weather by CustomWeather, © 2015

See weather overviewHow to use our weather pages